Regional Weather Roundup
Issued by NWS Spokane, WA

Home | Current Version | Previous Version | Text Only | Print | Product List | Glossary On
Versions: 1 2 3 4 5 6 7 8 9 10 11 12 13 14 15 16 17 18 19 20 21 22 23 24 25 26 27 28 29 30 31 32 33 34 35 36 37 38 39 40 41 42 43 44 45 46 47 48 49 50
000
NZUS01 KOTX 250410
RWROTX
EASTERN WASHINGTON/NORTHERN IDAHO ROUNDUP
NATIONAL WEATHER SERVICE, SPOKANE WA
900 PM PDT THU JUL 24 2014

Note: "fair" indicated few or no clouds below 12,000 feet with no
significant weather and/or obstructions to visibility.

...NORTHEAST WASHINGTON AND NORTHERN IDAHO PANHANDLE...

CITY           SKY/WX    TMP DP  RH WIND       PRES   REMARKS
SPOKANE INTL   MOCLDY    66  43  43 S9        30.07S
SPOKANE DOWNTO MOCLDY    68  43  40 SW8       30.07S
COEUR D ALENE  MOCLDY    63  45  51 SW7       30.07R
DEER PARK      MOCLDY    63  46  54 S10       30.06S
SANDPOINT      CLOUDY    55  55 100 CALM      30.07S

...SOUTHEAST WASHINGTON AND SOUTHERN IDAHO PANHANDLE...

CITY           SKY/WX    TMP DP  RH WIND       PRES   REMARKS
WALLA WALLA    CLEAR     69  45  41 SW9       30.10S
PULLMAN/MOSCOW CLEAR     60  43  53 SW3       30.13R
LEWISTON       CLEAR     71  41  33 W14G21    30.07R
LOWELL           N/A     61  47  59 CALM      30.11R

...COLUMBIA BASIN...

CITY           SKY/WX    TMP DP  RH WIND       PRES   REMARKS
EPHRATA        CLEAR     69  43  38 NW15      30.05R
MOSES LAKE     CLEAR     68  48  48 W10       30.06R
TRI CITIES     CLEAR     72  52  49 W7        30.07R
HERMISTON      CLEAR     67  50  54 SW12      30.09R
PENDLETON      CLEAR     64  46  52 W9        30.11R

...EAST SLOPES CASCADES...

CITY           SKY/WX    TMP DP  RH WIND       PRES   REMARKS
THE DALLES     CLEAR     66  51  58 W12       30.14R
YAKIMA         CLEAR     67  47  48 NW7       30.11R
ELLENSBURG     MOCLDY    61  49  64 NW15      30.14R
STAMPEDE PASS  FOG       47  45  93 VRB7      30.21S VSB 3/4
WENATCHEE      CLEAR     68  45  43 NW10      30.08R
OMAK           CLEAR     65  37  35 W3        30.04R

...SOUTHERN BRITISH COLUMBIA...

CITY           SKY/WX    TMP DP  RH WIND       PRES   REMARKS
CASTLEGAR      MOCLDY    55  54  94 E2        30.05S

...WESTERN MONTANA...

CITY           SKY/WX    TMP DP  RH WIND       PRES   REMARKS
MISSOULA       CLEAR     60  36  40 NW9       30.12R

...NEIGHBORING CITIES...

CITY           SKY/WX    TMP DP  RH WIND       PRES   REMARKS
SEATTLE        MOCLDY    60  53  77 NE8       30.22R
CALGARY        MOCLDY    57  34  41 W22G33    29.73R



USA.gov is the U.S. government's official web portal to all federal, state and local government web resources and services.